,,Stat6,,Stat2,,Stat8,,Stat9,,Stat10,,Wind1,,Wind1,
time,status,PA1M_AVG,status,PR1M_SUM,status,RH1M_AVG,status,SR1M_AVG,status,TA1M_AVG,status,W1dAve1m,status,W1sAve1m,
2008-08-30, 00:00:01,VALID,917.443,VALID,0,VALID,100,VALID,-0.0849042,VALID,18.3922,VALID,148,VALID,0.882431,
2008-08-30, 00:01:01,VALID,917.428,VALID,0,VALID,100,VALID,-0.0849042,VALID,18.3922,VALID,148,VALID,0.655428,
2008-08-30, 00:02:01,VALID,917.414,VALID,0,VALID,100,VALID,-0.101885,VALID,18.3957,VALID,140,VALID,1.10156,
2008-08-30, 00:03:01,VALID,917.405,VALID,0,VALID,100,VALID,-0.101885,VALID,18.3855,VALID,135,VALID,0.966087,
2008-08-30, 00:04:01,VALID,917.369,VALID,0,VALID,100,VALID,-0.101885,VALID,18.392,VALID,146,VALID,1.04908,
2008-08-30, 00:05:01,VALID,917.352,VALID,0,VALID,100,VALID,-0.101885,VALID,18.3892,VALID,147,VALID,1.15137,
2008-08-30, 00:06:01,VALID,917.326,VALID,0,VALID,100,VALID,-0.101885,VALID,18.3857,VALID,144,VALID,1.48661,
2008-08-30, 00:07:01,VALID,917.313,VALID,0,VALID,100,VALID,-0.101885,VALID,18.3952,VALID,153,VALID,0.603906,
2008-08-30, 00:08:01,VALID,917.289,VALID,0,VALID,100,VALID,-0.101885,VALID,18.392,VALID,151,VALID,0.809273,
2008-08-30, 00:09:01,VALID,917.282,VALID,0,VALID,100,VALID,-0.101885,VALID,18.3855,VALID,143,VALID,0.946701,
2008-08-30, 00:10:01,VALID,917.262,VALID,0,VALID,100,VALID,-0.101885,VALID,18.392,VALID,127,VALID,1.16648,
2008-08-30, 00:11:00,VALID,917.263,VALID,0,VALID,100,VALID,-0.0849042,VALID,18.392,VALID,137,VALID,1.00497,
2008-08-30, 00:12:00,VALID,917.258,VALID,0,VALID,100,VALID,-0.101885,VALID,18.389,VALID,125,VALID,1.09146,
2008-08-30, 00:13:00,VALID,917.273,VALID,0,VALID,100,VALID,-0.101885,VALID,18.3758,VALID,128,VALID,1.10032,
2008-08-30, 00:14:00,VALID,917.287,VALID,0,VALID,100,VALID,-0.101885,VALID,18.3628,VALID,121,VALID,1.00484,
2008-08-30, 00:15:00,VALID,917.292,VALID,0,VALID,100,VALID,-0.0849042,VALID,18.3725,VALID,121,VALID,1.10286,
2008-08-30, 00:16:00,VALID,917.282,VALID,0,VALID,100,VALID,-0.0679233,VALID,18.3691,VALID,111,VALID,0.790153,
2008-08-30, 00:17:00,VALID,917.263,VALID,0,VALID,100,VALID,-0.0849042,VALID,18.3758,VALID,130,VALID,0.474085,
2008-08-30, 00:18:00,VALID,917.238,VALID,0,VALID,100,VALID,-0.101885,VALID,18.3725,VALID,72,VALID,0.723514,
2008-08-30, 00:19:00,VALID,917.221,VALID,0,VALID,100,VALID,-0.0849042,VALID,18.3496,VALID,66,VALID,0.915483,
2008-08-30, 00:20:00,VALID,917.187,VALID,0,VALID,100,VALID,-0.0849042,VALID,18.3466,VALID,59,VALID,1.00347,
2008-08-30, 00:21:00,VALID,917.183,VALID,0,VALID,100,VALID,-0.0169808,VALID,18.326,VALID,67,VALID,0.805469,
2008-08-30, 00:22:00,VALID,917.173,VALID,0,VALID,100,VALID,-0.0169808,VALID,18.3322,VALID,87,VALID,0.830966,
2008-08-30, 00:23:00,VALID,917.164,VALID,0,VALID,100,VALID,0,VALID,18.3389,VALID,91,VALID,0.0416061,
2008-08-30, 00:24:00,VALID,917.128,VALID,0,VALID,100,VALID,-0.0339617,VALID,18.3357,VALID,90,VALID,0,
2008-08-30, 00:25:00,VALID,917.099,VALID,0,VALID,100,VALID,0,VALID,18.3452,VALID,90,VALID,0,
2008-08-30, 00:26:00,VALID,917.07,VALID,0,VALID,100,VALID,0.0169808,VALID,18.3616,VALID,111,VALID,0,
2008-08-30, 00:27:00,VALID,917.054,VALID,0,VALID,100,VALID,0,VALID,18.3711,VALID,115,VALID,0,
2008-08-30, 00:28:00,VALID,917.026,VALID,0,VALID,100,VALID,0.0339617,VALID,18.3744,VALID,122,VALID,0,
2008-08-30, 00:29:00,VALID,917.006,VALID,0,VALID,100,VALID,0.0339617,VALID,18.3709,VALID,120,VALID,0,
2008-08-30, 00:30:00,VALID,916.967,VALID,0,VALID,100,VALID,0.0169808,VALID,18.3674,VALID,120,VALID,0,
2008-08-30, 00:31:00,VALID,916.968,VALID,0,VALID,100,VALID,0.0509425,VALID,18.3742,VALID,120,VALID,0,
2008-08-30, 00:32:00,VALID,916.952,VALID,0,VALID,100,VALID,0.0339617,VALID,18.3709,VALID,111,VALID,0,
2008-08-30, 00:33:00,VALID,916.94,VALID,0,VALID,100,VALID,0.0509425,VALID,18.3515,VALID,98,VALID,0,
2008-08-30, 00:34:00,VALID,916.945,VALID,0,VALID,100,VALID,0.0169808,VALID,18.3679,VALID,101,VALID,0,
2008-08-30, 00:35:00,VALID,916.935,VALID,0,VALID,100,VALID,0.0339617,VALID,18.3709,VALID,122,VALID,0,
2008-08-30, 00:36:00,VALID,916.938,VALID,0,VALID,100,VALID,-0.0849042,VALID,18.3755,VALID,124,VALID,0,
2008-08-30, 00:37:00,VALID,916.921,VALID,0,VALID,100,VALID,-0.0849042,VALID,18.3753,VALID,128,VALID,0,
2008-08-30, 00:38:00,VALID,916.921,VALID,0,VALID,100,VALID,-0.0509425,VALID,18.3823,VALID,128,VALID,0,
2008-08-30, 00:39:00,VALID,916.913,VALID,0,VALID,100,VALID,-0.0509425,VALID,18.3723,VALID,128,VALID,0,
2008-08-30, 00:40:00,VALID,916.906,VALID,0,VALID,100,VALID,-0.0339617,VALID,18.3658,VALID,128,VALID,0,
2008-08-30, 00:41:00,VALID,916.884,VALID,0,VALID,100,VALID,-0.0679233,VALID,18.3563,VALID,128,VALID,0,
2008-08-30, 00:42:00,VALID,916.881,VALID,0,VALID,100,VALID,-0.101885,VALID,18.3468,VALID,124,VALID,0,
2008-08-30, 00:43:00,VALID,916.882,VALID,0,VALID,100,VALID,-0.0849042,VALID,18.3401,VALID,101,VALID,0,
2008-08-30, 00:44:00,VALID,916.862,VALID,0,VALID,100,VALID,-0.0849042,VALID,18.3362,VALID,98,VALID,0,
2008-08-30, 00:45:00,VALID,916.853,VALID,0,VALID,100,VALID,-0.0849042,VALID,18.3401,VALID,98,VALID,0,
2008-08-30, 00:46:00,VALID,916.831,VALID,0,VALID,100,VALID,-0.0679233,VALID,18.3401,VALID,125,VALID,0,
2008-08-30, 00:47:00,VALID,916.799,VALID,0,VALID,100,VALID,-0.0679233,VALID,18.3496,VALID,128,VALID,0,
2008-08-30, 00:48:00,VALID,916.769,VALID,0,VALID,100,VALID,-0.0509425,VALID,18.3464,VALID,131,VALID,0,
2008-08-30, 00:49:00,VALID,916.758,VALID,0,VALID,100,VALID,-0.0849042,VALID,18.3466,VALID,143,VALID,0,
2008-08-30, 00:50:00,VALID,916.768,VALID,0,VALID,100,VALID,-0.118866,VALID,18.3369,VALID,146,VALID,0,
2008-08-30, 00:51:00,VALID,916.781,VALID,0,VALID,100,VALID,-0.0169808,VALID,18.3329,VALID,139,VALID,0,
2008-08-30, 00:52:00,VALID,916.789,VALID,0,VALID,100,VALID,0,VALID,18.3195,VALID,135,VALID,0,
2008-08-30, 00:53:00,VALID,916.806,VALID,0,VALID,100,VALID,0,VALID,18.3033,VALID,135,VALID,0,
2008-08-30, 00:54:00,VALID,916.813,VALID,0,VALID,100,VALID,0.0169808,VALID,18.2998,VALID,132,VALID,0.0206926,
2008-08-30, 00:55:00,VALID,916.821,VALID,0,VALID,100,VALID,0,VALID,18.3065,VALID,126,VALID,0.0102307,
2008-08-30, 00:56:00,VALID,916.826,VALID,0,VALID,100,VALID,0.0339617,VALID,18.2769,VALID,123,VALID,0,
2008-08-30, 00:57:00,VALID,916.809,VALID,0,VALID,100,VALID,-0.0169808,VALID,18.2641,VALID,123,VALID,0,
2008-08-30, 00:58:00,VALID,916.806,VALID,0,VALID,100,VALID,0.0169808,VALID,18.2607,VALID,132,VALID,0,
2008-08-30, 00:59:00,VALID,916.808,VALID,0,VALID,100,VALID,0.0679233,VALID,18.2801,VALID,146,VALID,0,
2008-08-30, 01:00:00,VALID,916.791,VALID,0,VALID,100,VALID,0.0339617,VALID,18.2961,VALID,146,VALID,0,
2008-08-30, 01:01:00,VALID,916.791,VALID,0,VALID,100,VALID,0.0339617,VALID,18.3058,VALID,143,VALID,0,
2008-08-30, 01:02:00,VALID,916.781,VALID,0,VALID,100,VALID,0.0509425,VALID,18.316,VALID,131,VALID,0,
2008-08-30, 01:03:00,VALID,916.767,VALID,0,VALID,100,VALID,0.0509425,VALID,18.3026,VALID,122,VALID,0,
2008-08-30, 01:04:00,VALID,916.757,VALID,0,VALID,100,VALID,0.0169808,VALID,18.2836,VALID,116,VALID,0,
2008-08-30, 01:05:00,VALID,916.743,VALID,0,VALID,100,VALID,0,VALID,18.2866,VALID,116,VALID,0,
2008-08-30, 01:06:00,VALID,916.73,VALID,0,VALID,100,VALID,-0.0339617,VALID,18.275,VALID,116,VALID,0,
2008-08-30, 01:07:00,VALID,916.726,VALID,0,VALID,100,VALID,-0.0339617,VALID,18.2683,VALID,116,VALID,0,
2008-08-30, 01:08:00,VALID,916.726,VALID,0,VALID,100,VALID,-0.0679233,VALID,18.2486,VALID,116,VALID,0,
2008-08-30, 01:09:00,VALID,916.716,VALID,0,VALID,100,VALID,-0.0339617,VALID,18.2423,VALID,112,VALID,0,
2008-08-30, 01:10:00,VALID,916.732,VALID,0,VALID,100,VALID,-0.0169808,VALID,18.2291,VALID,78,VALID,0,
2008-08-30, 01:11:00,VALID,916.717,VALID,0,VALID,100,VALID,-0.0679233,VALID,18.2132,VALID,78,VALID,0,
2008-08-30, 01:12:00,VALID,916.713,VALID,0,VALID,100,VALID,-0.0509425,VALID,18.2196,VALID,78,VALID,0,
2008-08-30, 01:13:00,VALID,916.703,VALID,0,VALID,100,VALID,-0.0169808,VALID,18.2229,VALID,78,VALID,0,
2008-08-30, 01:14:00,VALID,916.695,VALID,0,VALID,100,VALID,-0.0509425,VALID,18.2588,VALID,78,VALID,0,
2008-08-30, 01:15:00,VALID,916.68,VALID,0,VALID,100,VALID,-0.0679233,VALID,18.2551,VALID,78,VALID,0,
2008-08-30, 01:16:00,VALID,916.674,VALID,0,VALID,100,VALID,-0.0509425,VALID,18.2192,VALID,78,VALID,0,
2008-08-30, 01:17:00,VALID,916.669,VALID,0,VALID,100,VALID,-0.0849042,VALID,18.1745,VALID,78,VALID,0,
2008-08-30, 01:18:00,VALID,916.677,VALID,0,VALID,100,VALID,-0.0509425,VALID,18.1092,VALID,78,VALID,0,
2008-08-30, 01:19:00,VALID,916.677,VALID,0,VALID,100,VALID,-0.0169808,VALID,18.0962,VALID,78,VALID,0,
2008-08-30, 01:20:00,VALID,916.664,VALID,0,VALID,100,VALID,-0.0339617,VALID,18.1288,VALID,78,VALID,0,
2008-08-30, 01:21:00,VALID,916.667,VALID,0,VALID,100,VALID,0.0339617,VALID,18.134,VALID,78,VALID,0,
2008-08-30, 01:22:00,VALID,916.668,VALID,0,VALID,100,VALID,0.0849042,VALID,18.1409,VALID,78,VALID,0,
2008-08-30, 01:23:00,VALID,916.671,VALID,0,VALID,100,VALID,0.0679233,VALID,18.124,VALID,78,VALID,0,
2008-08-30, 01:24:00,VALID,916.672,VALID,0,VALID,100,VALID,0.0509425,VALID,18.1113,VALID,78,VALID,0,
2008-08-30, 01:25:00,VALID,916.685,VALID,0,VALID,100,VALID,0.0339617,VALID,18.0754,VALID,78,VALID,0,
2008-08-30, 01:26:00,VALID,916.685,VALID,0,VALID,100,VALID,0,VALID,18.1242,VALID,78,VALID,0.24349,
2008-08-30, 01:27:00,VALID,916.684,VALID,0,VALID,100,VALID,0.0169808,VALID,18.2148,VALID,78,VALID,0,
2008-08-30, 01:28:00,VALID,916.683,VALID,0,VALID,100,VALID,0.0339617,VALID,18.2505,VALID,78,VALID,0,
2008-08-30, 01:29:00,VALID,916.671,VALID,0,VALID,100,VALID,0.0339617,VALID,18.26,VALID,96,VALID,0,
2008-08-30, 01:30:00,VALID,916.67,VALID,0,VALID,100,VALID,0.0509425,VALID,18.2669,VALID,104,VALID,0.046317,
2008-08-30, 01:31:00,VALID,916.658,VALID,0,VALID,100,VALID,0.0339617,VALID,18.2542,VALID,114,VALID,0,
2008-08-30, 01:32:00,VALID,916.648,VALID,0,VALID,100,VALID,0.0339617,VALID,18.238,VALID,118,VALID,0,
2008-08-30, 01:33:00,VALID,916.633,VALID,0,VALID,100,VALID,0.0339617,VALID,18.212,VALID,129,VALID,0,
2008-08-30, 01:34:00,VALID,916.611,VALID,0,VALID,100,VALID,0.0679233,VALID,18.2088,VALID,133,VALID,0,
2008-08-30, 01:35:00,VALID,916.589,VALID,0,VALID,100,VALID,0.0679233,VALID,18.1856,VALID,131,VALID,0,
2008-08-30, 01:36:00,VALID,916.577,VALID,0,VALID,100,VALID,-0.0509425,VALID,18.2,VALID,131,VALID,0,
2008-08-30, 01:37:00,VALID,916.559,VALID,0,VALID,100,VALID,-0.0679233,VALID,18.2324,VALID,139,VALID,0,
2008-08-30, 01:38:00,VALID,916.55,VALID,0,VALID,100,VALID,-0.0339617,VALID,18.2681,VALID,136,VALID,0.550872,
2008-08-30, 01:39:00,VALID,916.541,VALID,0,VALID,100,VALID,-0.0339617,VALID,18.2813,VALID,136,VALID,0.712573,
2008-08-30, 01:40:00,VALID,916.516,VALID,0,VALID,100,VALID,-0.0169808,VALID,18.2945,VALID,135,VALID,0.96946,
2008-08-30, 01:41:00,VALID,916.487,VALID,0,VALID,100,VALID,-0.0679233,VALID,18.2935,VALID,140,VALID,1.10265,
2008-08-30, 01:42:00,VALID,916.457,VALID,0,VALID,100,VALID,-0.0679233,VALID,18.3139,VALID,135,VALID,0.560082,
2008-08-30, 01:43:00,VALID,916.447,VALID,0,VALID,100,VALID,-0.0169808,VALID,18.3169,VALID,138,VALID,0,
2008-08-30, 01:44:00,VALID,916.402,VALID,0,VALID,100,VALID,-0.0679233,VALID,18.3304,VALID,132,VALID,0,
2008-08-30, 01:45:00,VALID,916.385,VALID,0,VALID,100,VALID,-0.0509425,VALID,18.3204,VALID,123,VALID,0,
2008-08-30, 01:46:00,VALID,916.355,VALID,0,VALID,100,VALID,-0.0849042,VALID,18.3042,VALID,113,VALID,0,
2008-08-30, 01:47:00,VALID,916.329,VALID,0,VALID,100,VALID,-0.0509425,VALID,18.3007,VALID,113,VALID,0,
2008-08-30, 01:48:00,VALID,916.296,VALID,0,VALID,100,VALID,-0.0339617,VALID,18.278,VALID,113,VALID,0,
2008-08-30, 01:49:00,VALID,916.283,VALID,0,VALID,100,VALID,-0.0679233,VALID,18.2847,VALID,117,VALID,0,
2008-08-30, 01:50:00,VALID,916.255,VALID,0,VALID,100,VALID,-0.0169808,VALID,18.262,VALID,117,VALID,0,
2008-08-30, 01:51:00,VALID,916.233,VALID,0,VALID,100,VALID,-0.0339617,VALID,18.2491,VALID,117,VALID,0,
2008-08-30, 01:52:00,VALID,916.221,VALID,0,VALID,100,VALID,-0.0679233,VALID,18.2423,VALID,127,VALID,0,
2008-08-30, 01:53:00,VALID,916.208,VALID,0,VALID,100,VALID,-0.0509425,VALID,18.2386,VALID,132,VALID,0,
2008-08-30, 01:54:00,VALID,916.192,VALID,0,VALID,100,VALID,-0.0339617,VALID,18.2389,VALID,132,VALID,0,
2008-08-30, 01:55:00,VALID,916.176,VALID,0,VALID,100,VALID,-0.0509425,VALID,18.2486,VALID,136,VALID,0,
2008-08-30, 01:56:00,VALID,916.162,VALID,0,VALID,100,VALID,-0.0679233,VALID,18.2421,VALID,138,VALID,0.397675,
2008-08-30, 01:57:00,VALID,916.147,VALID,0,VALID,100,VALID,-0.0339617,VALID,18.2319,VALID,136,VALID,0.262074,
2008-08-30, 01:58:00,VALID,916.124,VALID,0,VALID,100,VALID,0,VALID,18.2419,VALID,129,VALID,0,
2008-08-30, 01:59:00,VALID,916.105,VALID,0,VALID,100,VALID,-0.0169808,VALID,18.2419,VALID,133,VALID,0,
2008-08-30, 02:00:00,VALID,916.07,VALID,0,VALID,100,VALID,-0.0849042,VALID,18.2553,VALID,135,VALID,0,
2008-08-30, 02:01:00,VALID,916.056,VALID,0,VALID,100,VALID,-0.0849042,VALID,18.2722,VALID,135,VALID,0,
2008-08-30, 02:02:00,VALID,916.029,VALID,0,VALID,100,VALID,-0.0509425,VALID,18.2688,VALID,143,VALID,0,
2008-08-30, 02:03:00,VALID,915.998,VALID,0,VALID,100,VALID,-0.0679233,VALID,18.2748,VALID,144,VALID,0,
2008-08-30, 02:04:00,VALID,915.986,VALID,0,VALID,100,VALID,-0.0339617,VALID,18.2715,VALID,140,VALID,0,
2008-08-30, 02:05:00,VALID,915.974,VALID,0,VALID,100,VALID,-0.0509425,VALID,18.275,VALID,119,VALID,0,
2008-08-30, 02:06:00,VALID,915.946,VALID,0,VALID,100,VALID,-0.0849042,VALID,18.2588,VALID,125,VALID,0,
2008-08-30, 02:07:00,VALID,915.928,VALID,0,VALID,100,VALID,-0.0339617,VALID,18.2391,VALID,127,VALID,0,
2008-08-30, 02:08:00,VALID,915.891,VALID,0,VALID,100,VALID,-0.0509425,VALID,18.2259,VALID,130,VALID,0,
2008-08-30, 02:09:00,VALID,915.886,VALID,0,VALID,100,VALID,-0.0679233,VALID,18.2231,VALID,133,VALID,0,
2008-08-30, 02:10:00,VALID,915.872,VALID,0,VALID,100,VALID,-0.0679233,VALID,18.2095,VALID,141,VALID,0,
2008-08-30, 02:11:00,VALID,915.88,VALID,0,VALID,100,VALID,-0.0679233,VALID,18.2234,VALID,137,VALID,0,
2008-08-30, 02:12:00,VALID,915.863,VALID,0,VALID,100,VALID,-0.0849042,VALID,18.2097,VALID,137,VALID,0,
2008-08-30, 02:13:00,VALID,915.859,VALID,0,VALID,100,VALID,-0.0509425,VALID,18.2169,VALID,141,VALID,0,
2008-08-30, 02:14:00,VALID,915.851,VALID,0,VALID,100,VALID,-0.0849042,VALID,18.2101,VALID,139,VALID,0,
2008-08-30, 02:15:00,VALID,915.838,VALID,0,VALID,100,VALID,-0.101885,VALID,18.1939,VALID,137,VALID,0,
2008-08-30, 02:16:00,VALID,915.83,VALID,0,VALID,100,VALID,-0.0679233,VALID,18.1874,VALID,144,VALID,0,
2008-08-30, 02:17:00,VALID,915.81,VALID,0,VALID,100,VALID,-0.0509425,VALID,18.181,VALID,136,VALID,0,
2008-08-30, 02:18:00,VALID,915.803,VALID,0,VALID,100,VALID,-0.0679233,VALID,18.1675,VALID,142,VALID,0.00545058,
2008-08-30, 02:19:00,VALID,915.784,VALID,0,VALID,100,VALID,-0.0339617,VALID,18.1613,VALID,145,VALID,0.00497159,
2008-08-30, 02:20:00,VALID,915.785,VALID,0,VALID,100,VALID,-0.0339617,VALID,18.1513,VALID,137,VALID,0,
2008-08-30, 02:21:00,VALID,915.773,VALID,0,VALID,100,VALID,-0.0339617,VALID,18.1418,VALID,142,VALID,0,
2008-08-30, 02:22:00,VALID,915.767,VALID,0,VALID,100,VALID,-0.0679233,VALID,18.1386,VALID,144,VALID,0,
2008-08-30, 02:23:00,VALID,915.764,VALID,0,VALID,100,VALID,-0.0339617,VALID,18.1383,VALID,151,VALID,0,
2008-08-30, 02:24:00,VALID,915.755,VALID,0,VALID,100,VALID,-0.0679233,VALID,18.1349,VALID,154,VALID,0,
2008-08-30, 02:25:00,VALID,915.736,VALID,0,VALID,100,VALID,-0.0679233,VALID,18.1282,VALID,153,VALID,0,
2008-08-30, 02:26:00,VALID,915.725,VALID,0,VALID,100,VALID,-0.0509425,VALID,18.1319,VALID,153,VALID,0,
2008-08-30, 02:27:00,VALID,915.71,VALID,0,VALID,100,VALID,-0.0169808,VALID,18.1226,VALID,153,VALID,0,
2008-08-30, 02:28:00,VALID,915.716,VALID,0,VALID,100,VALID,-0.0679233,VALID,18.1092,VALID,150,VALID,0,
2008-08-30, 02:29:00,VALID,915.703,VALID,0,VALID,100,VALID,-0.101885,VALID,18.123,VALID,141,VALID,0,
2008-08-30, 02:30:00,VALID,915.711,VALID,0,VALID,100,VALID,-0.0169808,VALID,18.1221,VALID,140,VALID,0,
2008-08-30, 02:31:00,VALID,915.72,VALID,0,VALID,100,VALID,-0.0679233,VALID,18.1682,VALID,144,VALID,0.903201,
2008-08-30, 02:32:00,VALID,915.715,VALID,0,VALID,100,VALID,-0.0339617,VALID,18.174,VALID,149,VALID,1.0694,
2008-08-30, 02:33:00,VALID,915.724,VALID,0,VALID,100,VALID,-0.0849042,VALID,18.1872,VALID,140,VALID,0.805575,
2008-08-30, 02:34:00,VALID,915.728,VALID,0,VALID,100,VALID,-0.0339617,VALID,18.1932,VALID,151,VALID,0.95149,
2008-08-30, 02:35:00,VALID,915.74,VALID,0,VALID,100,VALID,-0.0339617,VALID,18.2037,VALID,155,VALID,0.775436,
2008-08-30, 02:36:00,VALID,915.752,VALID,0,VALID,100,VALID,-0.0509425,VALID,18.1969,VALID,147,VALID,0.724382,
2008-08-30, 02:37:00,VALID,915.766,VALID,0,VALID,100,VALID,-0.0339617,VALID,18.2,VALID,141,VALID,0.929102,
2008-08-30, 02:38:00,VALID,915.773,VALID,0,VALID,100,VALID,-0.0169808,VALID,18.1963,VALID,135,VALID,0.522905,
2008-08-30, 02:39:00,VALID,915.797,VALID,0,VALID,100,VALID,-0.0509425,VALID,18.2004,VALID,130,VALID,0.917361,
2008-08-30, 02:40:00,VALID,915.799,VALID,0,VALID,100,VALID,-0.0509425,VALID,18.2034,VALID,122,VALID,0.294071,
2008-08-30, 02:41:00,VALID,915.797,VALID,0,VALID,100,VALID,-0.0849042,VALID,18.2,VALID,116,VALID,0,
2008-08-30, 02:42:00,VALID,915.798,VALID,0,VALID,100,VALID,-0.0849042,VALID,18.2034,VALID,117,VALID,0.623935,
2008-08-30, 02:43:00,VALID,915.793,VALID,0,VALID,100,VALID,-0.0679233,VALID,18.1967,VALID,121,VALID,0.710751,
2008-08-30, 02:44:00,VALID,915.784,VALID,0,VALID,100,VALID,-0.0509425,VALID,18.1997,VALID,131,VALID,0.672061,
2008-08-30, 02:45:00,VALID,915.771,VALID,0,VALID,100,VALID,-0.0509425,VALID,18.2062,VALID,141,VALID,0.571094,
2008-08-30, 02:46:00,VALID,915.753,VALID,0,VALID,100,VALID,-0.0509425,VALID,18.2159,VALID,145,VALID,0.303199,
2008-08-30, 02:47:00,VALID,915.745,VALID,0,VALID,100,VALID,-0.0509425,VALID,18.2291,VALID,146,VALID,0.763808,
2008-08-30, 02:48:00,VALID,915.74,VALID,0,VALID,100,VALID,-0.0509425,VALID,18.2356,VALID,147,VALID,0.540838,
2008-08-30, 02:49:00,VALID,915.731,VALID,0,VALID,100,VALID,-0.0509425,VALID,18.2556,VALID,140,VALID,0.740854,
2008-08-30, 02:50:00,VALID,915.73,VALID,0,VALID,100,VALID,-0.0849042,VALID,18.2551,VALID,138,VALID,0.512957,
2008-08-30, 02:51:00,VALID,915.729,VALID,0,VALID,100,VALID,-0.0339617,VALID,18.2745,VALID,135,VALID,0.636265,
2008-08-30, 02:52:00,VALID,915.728,VALID,0,VALID,100,VALID,-0.0169808,VALID,18.2771,VALID,135,VALID,0.675037,
2008-08-30, 02:53:00,VALID,915.731,VALID,0,VALID,100,VALID,0,VALID,18.2574,VALID,133,VALID,0.345465,
2008-08-30, 02:54:00,VALID,915.731,VALID,0,VALID,100,VALID,-0.0169808,VALID,18.2574,VALID,129,VALID,0.85423,
2008-08-30, 02:55:00,VALID,915.726,VALID,0,VALID,100,VALID,0,VALID,18.2542,VALID,141,VALID,0.720553,
2008-08-30, 02:56:00,VALID,915.733,VALID,0,VALID,100,VALID,0.0169808,VALID,18.2474,VALID,139,VALID,0.728561,
2008-08-30, 02:57:00,VALID,915.72,VALID,0,VALID,100,VALID,0.0169808,VALID,18.2512,VALID,135,VALID,0.510547,
2008-08-30, 02:58:00,VALID,915.71,VALID,0,VALID,100,VALID,0,VALID,18.238,VALID,124,VALID,0.480769,
2008-08-30, 02:59:00,VALID,915.702,VALID,0,VALID,100,VALID,0,VALID,18.2282,VALID,154,VALID,0.569382,
2008-08-30, 03:00:00,VALID,915.696,VALID,0,VALID,100,VALID,0,VALID,18.2252,VALID,146,VALID,0.575218,
2008-08-30, 03:01:00,VALID,915.688,VALID,0,VALID,100,VALID,-0.0169808,VALID,18.222,VALID,146,VALID,0.800223,
2008-08-30, 03:02:00,VALID,915.672,VALID,0,VALID,100,VALID,-0.0509425,VALID,18.2319,VALID,143,VALID,0.752734,
2008-08-30, 03:03:00,VALID,915.665,VALID,0,VALID,100,VALID,0,VALID,18.2185,VALID,151,VALID,0.78054,
2008-08-30, 03:04:00,VALID,915.642,VALID,0,VALID,100,VALID,0,VALID,18.2155,VALID,145,VALID,0.955611,
2008-08-30, 03:05:00,VALID,915.642,VALID,0,VALID,100,VALID,0,VALID,18.219,VALID,135,VALID,0.682528,
2008-08-30, 03:06:00,VALID,915.616,VALID,0,VALID,100,VALID,0,VALID,18.2155,VALID,144,VALID,0.950238,
2008-08-30, 03:07:00,VALID,915.616,VALID,0,VALID,100,VALID,-0.0169808,VALID,18.209,VALID,150,VALID,1.01935,
2008-08-30, 03:08:00,VALID,915.612,VALID,0,VALID,100,VALID,0,VALID,18.2155,VALID,147,VALID,0.460211,
2008-08-30, 03:09:00,VALID,915.597,VALID,0,VALID,100,VALID,-0.0169808,VALID,18.2092,VALID,143,VALID,0.00436047,
2008-08-30, 03:10:00,VALID,915.587,VALID,0,VALID,100,VALID,-0.0509425,VALID,18.206,VALID,152,VALID,0.882622,
2008-08-30, 03:11:00,VALID,915.593,VALID,0,VALID,100,VALID,-0.0679233,VALID,18.1932,VALID,151,VALID,0.8,
2008-08-30, 03:12:00,VALID,915.585,VALID,0,VALID,100,VALID,0,VALID,18.1831,VALID,148,VALID,0.869855,
2008-08-30, 03:13:00,VALID,915.576,VALID,0,VALID,100,VALID,-0.0169808,VALID,18.1766,VALID,144,VALID,0.908558,
2008-08-30, 03:14:00,VALID,915.568,VALID,0,VALID,100,VALID,-0.0339617,VALID,18.1798,VALID,133,VALID,0.927912,
2008-08-30, 03:15:00,VALID,915.554,VALID,0,VALID,100,VALID,-0.0339617,VALID,18.1636,VALID,124,VALID,0.888148,
2008-08-30, 03:16:00,VALID,915.557,VALID,0,VALID,100,VALID,0,VALID,18.1604,VALID,136,VALID,0.733487,
2008-08-30, 03:17:00,VALID,915.56,VALID,0,VALID,100,VALID,0,VALID,18.1673,VALID,128,VALID,0.661585,
2008-08-30, 03:18:00,VALID,915.558,VALID,0,VALID,100,VALID,-0.0169808,VALID,18.1476,VALID,123,VALID,0.744186,
2008-08-30, 03:19:00,VALID,915.544,VALID,0,VALID,100,VALID,0,VALID,18.1541,VALID,125,VALID,0.954687,
2008-08-30, 03:20:00,VALID,915.548,VALID,0,VALID,100,VALID,0,VALID,18.1604,VALID,142,VALID,1.04874,
2008-08-30, 03:21:00,VALID,915.527,VALID,0,VALID,100,VALID,-0.0169808,VALID,18.1831,VALID,132,VALID,0.673651,
2008-08-30, 03:22:00,VALID,915.536,VALID,0,VALID,100,VALID,0,VALID,18.1833,VALID,133,VALID,0.384673,
2008-08-30, 03:23:00,VALID,915.522,VALID,0,VALID,100,VALID,0,VALID,18.1798,VALID,113,VALID,0.567578,
2008-08-30, 03:24:00,VALID,915.528,VALID,0,VALID,100,VALID,-0.0339617,VALID,18.1701,VALID,117,VALID,0.818132,
2008-08-30, 03:25:00,VALID,915.525,VALID,0,VALID,100,VALID,-0.0169808,VALID,18.1733,VALID,123,VALID,0.497159,
2008-08-30, 03:26:00,VALID,915.521,VALID,0,VALID,100,VALID,-0.0169808,VALID,18.1798,VALID,135,VALID,0.574319,
2008-08-30, 03:27:00,VALID,915.521,VALID,0,VALID,100,VALID,0,VALID,18.1699,VALID,114,VALID,0.52468,
2008-08-30, 03:28:00,VALID,915.524,VALID,0,VALID,100,VALID,-0.0169808,VALID,18.1636,VALID,123,VALID,0.571403,
2008-08-30, 03:29:00,VALID,915.517,VALID,0,VALID,100,VALID,0,VALID,18.1701,VALID,127,VALID,0.448847,
2008-08-30, 03:30:00,VALID,915.531,VALID,0,VALID,100,VALID,0,VALID,18.1601,VALID,145,VALID,0.521439,
2008-08-30, 03:31:00,VALID,915.521,VALID,0,VALID,100,VALID,0,VALID,18.1532,VALID,148,VALID,0,
2008-08-30, 03:32:00,VALID,915.518,VALID,0,VALID,100,VALID,0.0169808,VALID,18.1601,VALID,148,VALID,0.0348837,
2008-08-30, 03:33:00,VALID,915.513,VALID,0,VALID,100,VALID,0.0339617,VALID,18.1469,VALID,145,VALID,0,
2008-08-30, 03:34:00,VALID,915.511,VALID,0,VALID,100,VALID,0.0339617,VALID,18.1374,VALID,137,VALID,0,
2008-08-30, 03:35:00,VALID,915.509,VALID,0,VALID,100,VALID,0,VALID,18.1247,VALID,112,VALID,0,
2008-08-30, 03:36:00,VALID,915.515,VALID,0,VALID,100,VALID,0.0169808,VALID,18.1212,VALID,107,VALID,0,
2008-08-30, 03:37:00,VALID,915.515,VALID,0,VALID,100,VALID,0,VALID,18.118,VALID,96,VALID,0,
2008-08-30, 03:38:00,VALID,915.517,VALID,0.2,VALID,100,VALID,-0.0169808,VALID,18.1018,VALID,93,VALID,0,
2008-08-30, 03:39:00,VALID,915.528,VALID,0,VALID,100,VALID,0,VALID,18.0985,VALID,93,VALID,0,
2008-08-30, 03:40:00,VALID,915.521,VALID,0,VALID,100,VALID,-0.0169808,VALID,18.0962,VALID,90,VALID,0,
2008-08-30, 03:41:00,VALID,915.535,VALID,0,VALID,100,VALID,-0.0169808,VALID,18.0788,VALID,109,VALID,0,
2008-08-30, 03:42:00,VALID,915.532,VALID,0,VALID,100,VALID,-0.0339617,VALID,18.0791,VALID,107,VALID,0,
2008-08-30, 03:43:00,VALID,915.555,VALID,0,VALID,100,VALID,-0.0509425,VALID,18.089,VALID,112,VALID,0,
2008-08-30, 03:44:00,VALID,915.551,VALID,0,VALID,100,VALID,-0.0339617,VALID,18.0858,VALID,114,VALID,0.00914634,
2008-08-30, 03:45:00,VALID,915.557,VALID,0,VALID,100,VALID,0,VALID,18.089,VALID,114,VALID,0.110547,